Weather in Zeyuko

Russia / Karachay-Cherkess Republic     44°07′01″N   41°49′31″E
temp.,
°C
wind,
m/s
gust,
m/s
humid.,
%
clouds,
%
prec.,
mm/h
press.,
hPa
HPBL,
m
6 may, thu
thu600:00+5s22910 0.0 101618
03:00+4s22870 0.0 101521
06:00+5s33794 0.0 101547
09:00+13e015849 0.0 1012417
12:00+17n32525 0.0 10101028
15:00+17n435621 0.0 10111207
18:00+15nne3474100 0.0 1012215
21:00+10s1185100 0.1 101310
7 may, fri
fri700:00+9ssw3389100 0.0 101440
03:00+8ssw338353 0.1 101543
06:00+8s347990 0.1 101671
09:00+14n22686 0.2 1016596
12:00+16n547120 1.1 1016985
15:00+15nne546598 1.8 10171333
18:00+11e1187100 1.0 101829
21:00+11ese119296 1.1 102011
8 may, sat
sat800:00+8s11945 0.0 101910
03:00+8s33945 0.0 101838
06:00+8s34866 0.0 101769
09:00+15ssw115981 0.0 1015386
12:00+19nne3255100 0.0 1013964
15:00+19n3358100 0.0 10131118
18:00+16n237765 0.0 1013115
21:00+12ssw228786 0.1 101412
9 may, sun
sun900:00+9s44855 0.0 101354
03:00+8s446098 0.0 101153
06:00+10ssw3563100 0.0 100971
09:00+11wsw1277100 0.2 1011426
12:00+14wnw2372100 0.2 1009461
15:00+4nnw61196100 1.8 1016577
18:00+2nnw3899100 5.4 1021460
21:00+1w41099100 9.3 1024791
10 may, mon
mon1000:00+1wsw24100100 0.7 1025265
03:00+1w3897100 1.4 1026669
06:00+1ssw4692100 0.1 1025262
09:00+5w467794 0.1 10231086
12:00+7wnw797072 0.4 10211499
15:00+7nw8971100 0.5 10191349
18:00+4wnw41092100 0.6 10211044
21:00+3wnw1297100 0.9 1021323